| time (UTC) | temp F | wind direction | speed MPH | gust MPH | rain 1hr in | rain 24hr in | rain mn in | humidity % | barometer mb |
| 20260901220121 | 89 | 245 | 5.0 | 10.0 | 0.00 | 0.00 | 0.00 | 67 | 1012.3 |
| 20260901215620 | 89 | 254 | 8.0 | 10.0 | 0.00 | 0.00 | 0.00 | 65 | 1012.4 |
| 20260901215114 | 90 | 258 | 7.0 | 13.0 | 0.00 | 0.00 | 0.00 | 63 | 1012.3 |
| 20260901214613 | 90 | 217 | 6.0 | 13.0 | 0.00 | 0.00 | 0.00 | 63 | 1012.2 |
| 20260901214113 | 90 | 243 | 8.0 | 11.0 | 0.00 | 0.00 | 0.00 | 63 | 1012.3 |
| 20260901213607 | 90 | 222 | 9.0 | 13.0 | 0.00 | 0.00 | 0.00 | 63 | 1012.6 |
| 20260901213101 | 90 | 255 | 6.0 | 9.0 | 0.00 | 0.00 | 0.00 | 64 | 1012.2 |
| 20260901212601 | 90 | 219 | 5.0 | 11.0 | 0.00 | 0.00 | 0.00 | 64 | 1012.5 |
| 20260901212058 | 90 | 260 | 5.0 | 11.0 | 0.00 | 0.00 | 0.00 | 65 | 1012.5 |
| 20260901211553 | 90 | 288 | 7.0 | 11.0 | 0.00 | 0.00 | 0.00 | 65 | 1012.7 |
| 20260901211049 | 90 | 230 | 4.0 | 11.0 | 0.00 | 0.00 | 0.00 | 66 | 1012.7 |
| 20260901210544 | 90 | 228 | 9.0 | 10.0 | 0.00 | 0.00 | 0.00 | 66 | 1012.7 |
| 20260901210041 | 89 | 232 | 7.0 | 10.0 | 0.00 | 0.00 | 0.00 | 69 | 1012.8 |
| 20260901205535 | 90 | 277 | 7.0 | 9.0 | 0.00 | 0.00 | 0.00 | 67 | 1012.7 |
| 20260901205030 | 89 | 246 | 5.0 | 11.0 | 0.00 | 0.00 | 0.00 | 66 | 1012.9 |
| 20260901204526 | 90 | 268 | 9.0 | 9.0 | 0.00 | 0.00 | 0.00 | 67 | 1012.8 |
| 20260901204021 | 89 | 244 | 10.0 | 13.0 | 0.00 | 0.00 | 0.00 | 68 | 1013.0 |
| 20260901203515 | 89 | 254 | 5.0 | 8.0 | 0.00 | 0.00 | 0.00 | 68 | 1012.8 |
| 20260901203010 | 89 | 232 | 9.0 | 10.0 | 0.00 | 0.00 | 0.00 | 68 | 1012.8 |
| 20260901202505 | 89 | 245 | 9.0 | 10.0 | 0.00 | 0.00 | 0.00 | 67 | 1013.1 |
| 20260901202001 | 89 | 297 | 3.0 | 7.0 | 0.00 | 0.00 | 0.00 | 68 | 1012.9 |
| 20260901201455 | 90 | 312 | 6.0 | 7.0 | 0.00 | 0.00 | 0.00 | 67 | 1012.9 |
| 20260901200950 | 89 | 234 | 5.0 | 9.0 | 0.00 | 0.00 | 0.00 | 66 | 1013.0 |
| 20260901200445 | 89 | 243 | 9.0 | 9.0 | 0.00 | 0.00 | 0.00 | 67 | 1012.9 |
| 20260901195944 | 89 | 249 | 7.0 | 10.0 | 0.00 | 0.00 | 0.00 | 66 | 1013.0 |
| 20260901195443 | 88 | 237 | 11.0 | 11.0 | 0.00 | 0.00 | 0.00 | 66 | 1013.1 |
| 20260901194937 | 89 | 223 | 6.0 | 10.0 | 0.00 | 0.00 | 0.00 | 65 | 1013.1 |
| 20260901194432 | 89 | 246 | 10.0 | 11.0 | 0.00 | 0.00 | 0.00 | 68 | 1013.1 |
| 20260901193929 | 89 | 241 | 8.0 | 10.0 | 0.00 | 0.00 | 0.00 | 67 | 1013.2 |
| 20260901193428 | 88 | 246 | 6.0 | 9.0 | 0.00 | 0.00 | 0.00 | 65 | 1013.4 |
| 20260901192927 | 89 | 288 | 5.0 | 9.0 | 0.00 | 0.00 | 0.00 | 66 | 1013.2 |
| 20260901192424 | 89 | 275 | 4.0 | 9.0 | 0.00 | 0.00 | 0.00 | 65 | 1013.2 |
| 20260901191920 | 89 | 248 | 8.0 | 8.0 | 0.00 | 0.00 | 0.00 | 65 | 1013.3 |
| 20260901191415 | 88 | 322 | 2.0 | 7.0 | 0.00 | 0.00 | 0.00 | 66 | 1013.4 |
| 20260901190911 | 89 | 255 | 5.0 | 8.0 | 0.00 | 0.00 | 0.00 | 67 | 1013.3 |
| 20260901190411 | 88 | 230 | 3.0 | 10.0 | 0.00 | 0.00 | 0.00 | 67 | 1013.5 |
| 20260901185909 | 88 | 239 | 3.0 | 7.0 | 0.00 | 0.00 | 0.00 | 64 | 1013.7 |
| 20260901185409 | 88 | 345 | 5.0 | 5.0 | 0.00 | 0.00 | 0.00 | 68 | 1013.5 |
| 20260901184903 | 88 | 230 | 3.0 | 7.0 | 0.00 | 0.00 | 0.00 | 68 | 1013.4 |
| 20260901184359 | 88 | 220 | 7.0 | 10.0 | 0.00 | 0.00 | 0.00 | 69 | 1013.4 |
| 20260901183854 | 88 | 289 | 3.0 | 6.0 | 0.00 | 0.00 | 0.00 | 70 | 1013.5 |
| 20260901183353 | 88 | 270 | 1.0 | 7.0 | 0.00 | 0.00 | 0.00 | 72 | 1013.2 |
| 20260901182849 | 87 | 296 | 4.0 | 5.0 | 0.00 | 0.00 | 0.00 | 71 | 1013.6 |
| 20260901182350 | 86 | 276 | 3.0 | 5.0 | 0.00 | 0.00 | 0.00 | 73 | 1013.4 |
| 20260901181844 | 87 | 180 | 0.0 | 6.0 | 0.00 | 0.00 | 0.00 | 73 | 1013.3 |
| 20260901181339 | 87 | 262 | 5.0 | 5.0 | 0.00 | 0.00 | 0.00 | 74 | 1013.6 |
| 20260901180838 | 87 | 246 | 8.0 | 8.0 | 0.00 | 0.00 | 0.00 | 73 | 1013.6 |
| 20260901180337 | 87 | 241 | 5.0 | 7.0 | 0.00 | 0.00 | 0.00 | 72 | 1013.6 |
| 20260901175831 | 87 | 236 | 5.0 | 6.0 | 0.00 | 0.00 | 0.00 | 74 | 1013.6 |
| 20260901175325 | 87 | 248 | 5.0 | 6.0 | 0.00 | 0.00 | 0.00 | 73 | 1013.7 |
| 20260901174820 | 86 | 260 | 5.0 | 11.0 | 0.00 | 0.00 | 0.00 | 76 | 1013.8 |
| 20260901174316 | 86 | 286 | 4.0 | 8.0 | 0.00 | 0.00 | 0.00 | 76 | 1013.9 |
| 20260901173811 | 86 | 244 | 4.0 | 11.0 | 0.00 | 0.00 | 0.00 | 78 | 1013.8 |
| 20260901173306 | 86 | 251 | 5.0 | 11.0 | 0.00 | 0.00 | 0.00 | 78 | 1013.7 |
| 20260901172803 | 86 | 258 | 3.0 | 9.0 | 0.00 | 0.00 | 0.00 | 78 | 1013.7 |
| 20260901172304 | 86 | 220 | 3.0 | 5.0 | 0.00 | 0.00 | 0.00 | 78 | 1013.8 |
| 20260901171759 | 86 | 244 | 3.0 | 7.0 | 0.00 | 0.00 | 0.00 | 78 | 1013.9 |
| 20260901171259 | 85 | 248 | 5.0 | 8.0 | 0.00 | 0.00 | 0.00 | 78 | 1014.0 |
| 20260901170758 | 86 | 310 | 6.0 | 6.0 | 0.00 | 0.00 | 0.00 | 78 | 1014.1 |
| 20260901170253 | 86 | 229 | 2.0 | 5.0 | 0.00 | 0.00 | 0.00 | 79 | 1014.3 |
| 20260901165752 | 85 | 239 | 5.0 | 7.0 | 0.00 | 0.00 | 0.00 | 78 | 1014.3 |
| 20260901165247 | 86 | 225 | 3.0 | 6.0 | 0.00 | 0.00 | 0.00 | 80 | 1014.3 |
| 20260901164743 | 85 | 243 | 0.0 | 4.0 | 0.00 | 0.00 | 0.00 | 80 | 1014.3 |
| 20260901164238 | 85 | 319 | 2.0 | 3.0 | 0.00 | 0.00 | 0.00 | 79 | 1014.0 |
| 20260901163734 | 85 | 246 | 4.0 | 5.0 | 0.00 | 0.00 | 0.00 | 80 | 1014.1 |
| 20260901163233 | 84 | 288 | 3.0 | 8.0 | 0.00 | 0.00 | 0.00 | 81 | 1014.3 |
| 20260901162728 | 84 | 265 | 2.0 | 6.0 | 0.00 | 0.00 | 0.00 | 81 | 1014.3 |
| 20260901162227 | 84 | 313 | 3.0 | 6.0 | 0.00 | 0.00 | 0.00 | 82 | 1014.6 |
| 20260901161726 | 84 | 235 | 5.0 | 6.0 | 0.00 | 0.00 | 0.00 | 82 | 1014.4 |
| 20260901161221 | 84 | 201 | 4.0 | 5.0 | 0.00 | 0.00 | 0.00 | 84 | 1014.5 |
| 20260901160717 | 84 | 331 | 5.0 | 8.0 | 0.00 | 0.00 | 0.00 | 85 | 1014.6 |
| 20260901160213 | 84 | 248 | 2.0 | 5.0 | 0.00 | 0.00 | 0.00 | 86 | 1014.7 |
| 20260901155711 | 83 | 282 | 5.0 | 6.0 | 0.00 | 0.00 | 0.00 | 86 | 1014.6 |
| 20260901155207 | 83 | 297 | 3.0 | 5.0 | 0.00 | 0.00 | 0.00 | 85 | 1014.5 |
| 20260901154702 | 82 | 344 | 4.0 | 7.0 | 0.00 | 0.00 | 0.00 | 86 | 1014.4 |
| 20260901154156 | 82 | 244 | 3.0 | 6.0 | 0.00 | 0.00 | 0.00 | 86 | 1014.4 |
| 20260901153652 | 82 | 255 | 2.0 | 4.0 | 0.00 | 0.00 | 0.00 | 87 | 1014.6 |
| 20260901153151 | 82 | 324 | 3.0 | 4.0 | 0.00 | 0.00 | 0.00 | 88 | 1014.4 |
| 20260901152646 | 82 | 240 | 3.0 | 5.0 | 0.00 | 0.00 | 0.00 | 88 | 1014.7 |
| 20260901152144 | 82 | 294 | 0.0 | 3.0 | 0.00 | 0.00 | 0.00 | 88 | 1014.4 |
| 20260901151641 | 81 | 265 | 4.0 | 5.0 | 0.00 | 0.00 | 0.00 | 90 | 1014.6 |
| 20260901151140 | 81 | 296 | 3.0 | 4.0 | 0.00 | 0.00 | 0.00 | 90 | 1014.3 |
| 20260901150639 | 81 | 275 | 2.0 | 4.0 | 0.00 | 0.00 | 0.00 | 91 | 1014.5 |
| 20260901150132 | 80 | 226 | 4.0 | 5.0 | 0.00 | 0.00 | 0.00 | 91 | 1014.4 |
| 20260901145630 | 80 | 212 | 2.0 | 5.0 | 0.00 | 0.00 | 0.00 | 92 | 1014.5 |
| 20260901145130 | 80 | 299 | 4.0 | 5.0 | 0.00 | 0.00 | 0.00 | 92 | 1014.4 |
| 20260901144626 | 80 | 327 | 3.0 | 4.0 | 0.00 | 0.00 | 0.00 | 92 | 1014.4 |
| 20260901144121 | 79 | 295 | 4.0 | 6.0 | 0.00 | 0.00 | 0.00 | 93 | 1014.4 |
| 20260901143616 | 79 | 329 | 4.0 | 5.0 | 0.00 | 0.00 | 0.00 | 93 | 1014.1 |
| 20260901143112 | 79 | 7 | 5.0 | 5.0 | 0.00 | 0.00 | 0.00 | 94 | 1014.3 |
| 20260901142608 | 79 | 266 | 2.0 | 4.0 | 0.00 | 0.00 | 0.00 | 94 | 1014.1 |
| 20260901142107 | 79 | 270 | 3.0 | 4.0 | 0.00 | 0.00 | 0.00 | 94 | 1014.3 |
| 20260901141602 | 78 | 337 | 1.0 | 4.0 | 0.00 | 0.00 | 0.00 | 94 | 1013.9 |
| 20260901141057 | 79 | 318 | 3.0 | 4.0 | 0.00 | 0.00 | 0.00 | 95 | 1014.1 |
| 20260901140555 | 78 | 270 | 2.0 | 4.0 | 0.00 | 0.00 | 0.00 | 94 | 1014.1 |
| 20260901140050 | 78 | 330 | 2.0 | 3.0 | 0.00 | 0.00 | 0.00 | 94 | 1014.4 |
| 20260901135549 | 78 | 227 | 3.0 | 4.0 | 0.00 | 0.00 | 0.00 | 94 | 1014.3 |
| 20260901135045 | 77 | 18 | 1.0 | 2.0 | 0.00 | 0.00 | 0.00 | 95 | 1014.3 |
| 20260901134541 | 77 | 342 | 2.0 | 2.0 | 0.00 | 0.00 | 0.00 | 95 | 1014.0 |
| 20260901134041 | 77 | 7 | 1.0 | 2.0 | 0.00 | 0.00 | 0.00 | 95 | 1014.1 |
| 20260901133540 | 77 | 354 | 1.0 | 3.0 | 0.00 | 0.00 | 0.00 | 95 | 1014.4 |
| 20260901133038 | 77 | 357 | 2.0 | 3.0 | 0.00 | 0.00 | 0.00 | 95 | 1014.3 |
| 20260901132533 | 77 | 5 | 0.0 | 3.0 | 0.00 | 0.00 | 0.00 | 95 | 1014.3 |
| 20260901132032 | 76 | 354 | 1.0 | 3.0 | 0.00 | 0.00 | 0.00 | 96 | 1014.3 |
| 20260901131527 | 76 | 277 | 1.0 | 3.0 | 0.00 | 0.00 | 0.00 | 96 | 1014.3 |
| 20260901131023 | 76 | 221 | 2.0 | 2.0 | 0.00 | 0.00 | 0.00 | 96 | 1014.3 |
| 20260901130522 | 76 | 0 | 0.0 | 1.0 | 0.00 | 0.00 | 0.00 | 96 | 1014.5 |
| 20260901130021 | 75 | 200 | 0.0 | 2.0 | 0.00 | 0.00 | 0.00 | 96 | 1014.5 |
| 20260901125520 | 75 | 240 | 1.0 | 3.0 | 0.00 | 0.00 | 0.00 | 97 | 1014.4 |
| 20260901125015 | 75 | 315 | 0.0 | 3.0 | 0.00 | 0.00 | 0.00 | 97 | 1014.6 |
| 20260901124510 | 75 | 315 | 0.0 | 3.0 | 0.00 | 0.00 | 0.00 | 97 | 1014.6 |
| 20260901124009 | 75 | 251 | 1.0 | 2.0 | 0.00 | 0.00 | 0.00 | 97 | 1014.3 |
| 20260901123505 | 75 | 243 | 0.0 | 2.0 | 0.00 | 0.00 | 0.00 | 97 | 1014.1 |
| 20260901123004 | 74 | 261 | 0.0 | 2.0 | 0.00 | 0.00 | 0.00 | 97 | 1014.4 |
| 20260901122457 | 74 | 287 | 0.0 | 2.0 | 0.00 | 0.00 | 0.00 | 97 | 1014.3 |
| 20260901121956 | 73 | 270 | 0.0 | 0.0 | 0.00 | 0.00 | 0.00 | 97 | 1014.0 |
| 20260901121451 | 73 | 255 | 0.0 | 2.0 | 0.00 | 0.00 | 0.00 | 97 | 1013.9 |
| 20260901120946 | 73 | 342 | 1.0 | 2.0 | 0.00 | 0.00 | 0.00 | 97 | 1014.3 |
| 20260901120441 | 73 | 292 | 2.0 | 3.0 | 0.00 | 0.00 | 0.00 | 97 | 1014.1 |
| 20260901115937 | 73 | 262 | 0.0 | 2.0 | 0.00 | 0.00 | 0.00 | 97 | 1014.0 |
| 20260901115437 | 73 | 281 | 2.0 | 3.0 | 0.00 | 0.00 | 0.00 | 97 | 1013.7 |
| 20260901114934 | 72 | 292 | 2.0 | 2.0 | 0.00 | 0.00 | 0.00 | 97 | 1013.9 |
| 20260901114429 | 72 | 270 | 0.0 | 2.0 | 0.00 | 0.00 | 0.00 | 97 | 1013.6 |
| 20260901113927 | 73 | 309 | 2.0 | 3.0 | 0.00 | 0.00 | 0.00 | 97 | 1013.8 |
| 20260901113427 | 73 | 0 | 2.0 | 3.0 | 0.00 | 0.00 | 0.00 | 97 | 1013.8 |
| 20260901112922 | 72 | 292 | 3.0 | 3.0 | 0.00 | 0.00 | 0.00 | 97 | 1013.7 |
| 20260901112417 | 72 | 300 | 0.0 | 2.0 | 0.00 | 0.00 | 0.00 | 97 | 1013.4 |
| 20260901111912 | 72 | 243 | 1.0 | 2.0 | 0.00 | 0.00 | 0.00 | 97 | 1013.5 |
| 20260901111410 | 72 | 261 | 0.0 | 0.0 | 0.00 | 0.00 | 0.00 | 97 | 1013.3 |
| 20260901110909 | 71 | 261 | 0.0 | 0.0 | 0.00 | 0.00 | 0.00 | 97 | 1013.5 |
| 20260901110405 | 72 | 261 | 0.0 | 0.0 | 0.00 | 0.00 | 0.00 | 97 | 1013.4 |
| 20260901105901 | 72 | 243 | 0.0 | 2.0 | 0.00 | 0.00 | 0.00 | 97 | 1013.2 |
| 20260901105356 | 72 | 212 | 2.0 | 2.0 | 0.00 | 0.00 | 0.00 | 96 | 1013.4 |
| 20260901104852 | 72 | 246 | 1.0 | 1.0 | 0.00 | 0.00 | 0.00 | 96 | 1013.2 |
| 20260901104347 | 73 | 251 | 1.0 | 1.0 | 0.00 | 0.00 | 0.00 | 96 | 1013.2 |
| 20260901103842 | 73 | 240 | 2.0 | 2.0 | 0.00 | 0.00 | 0.00 | 96 | 1013.2 |
| 20260901103337 | 73 | 270 | 0.0 | 1.0 | 0.00 | 0.00 | 0.00 | 96 | 1013.3 |
| 20260901102832 | 73 | 286 | 0.0 | 1.0 | 0.00 | 0.00 | 0.00 | 96 | 1013.2 |
| 20260901102332 | 73 | 270 | 0.0 | 0.0 | 0.00 | 0.00 | 0.00 | 96 | 1012.8 |
| 20260901101827 | 73 | 270 | 0.0 | 0.0 | 0.00 | 0.00 | 0.00 | 96 | 1013.2 |
| 20260901101326 | 73 | 270 | 0.0 | 1.0 | 0.00 | 0.00 | 0.00 | 96 | 1012.8 |
| 20260901100821 | 73 | 263 | 0.0 | 1.0 | 0.00 | 0.00 | 0.00 | 96 | 1013.0 |
| 20260901100316 | 73 | 262 | 0.0 | 2.0 | 0.00 | 0.00 | 0.00 | 96 | 1013.2 |
| 20260901095815 | 73 | 264 | 1.0 | 3.0 | 0.00 | 0.00 | 0.00 | 96 | 1013.1 |
| 20260901095312 | 74 | 248 | 0.0 | 4.0 | 0.00 | 0.00 | 0.00 | 96 | 1013.0 |
| 20260901094807 | 74 | 297 | 3.0 | 4.0 | 0.00 | 0.00 | 0.00 | 96 | 1013.2 |
| 20260901094302 | 73 | 299 | 2.0 | 3.0 | 0.00 | 0.00 | 0.00 | 96 | 1013.4 |
| 20260901093756 | 74 | 279 | 2.0 | 3.0 | 0.00 | 0.00 | 0.00 | 96 | 1013.3 |
| 20260901093255 | 74 | 265 | 2.0 | 3.0 | 0.00 | 0.00 | 0.00 | 96 | 1013.2 |
| 20260901092751 | 74 | 279 | 2.0 | 5.0 | 0.00 | 0.00 | 0.00 | 96 | 1013.5 |
| 20260901092248 | 74 | 310 | 3.0 | 3.0 | 0.00 | 0.00 | 0.00 | 96 | 1013.4 |
| 20260901091742 | 74 | 273 | 3.0 | 3.0 | 0.00 | 0.00 | 0.00 | 96 | 1013.5 |
| 20260901091237 | 74 | 297 | 1.0 | 4.0 | 0.00 | 0.00 | 0.00 | 96 | 1013.2 |
| 20260901090732 | 74 | 309 | 3.0 | 3.0 | 0.00 | 0.00 | 0.00 | 96 | 1013.1 |
| 20260901090227 | 74 | 292 | 2.0 | 3.0 | 0.00 | 0.00 | 0.00 | 96 | 1013.1 |
| 20260901085724 | 75 | 299 | 3.0 | 3.0 | 0.00 | 0.00 | 0.00 | 96 | 1013.0 |
| 20260901085218 | 74 | 263 | 3.0 | 3.0 | 0.00 | 0.00 | 0.00 | 96 | 1013.3 |
| 20260901084715 | 75 | 246 | 2.0 | 3.0 | 0.00 | 0.00 | 0.00 | 96 | 1013.2 |
| 20260901084211 | 75 | 270 | 0.0 | 3.0 | 0.00 | 0.00 | 0.00 | 96 | 1013.1 |
| 20260901083705 | 75 | 255 | 2.0 | 3.0 | 0.00 | 0.00 | 0.00 | 96 | 1012.8 |
| 20260901083204 | 75 | 270 | 2.0 | 3.0 | 0.00 | 0.00 | 0.00 | 96 | 1013.0 |
| 20260901082703 | 75 | 263 | 3.0 | 5.0 | 0.00 | 0.00 | 0.00 | 96 | 1013.0 |
| 20260901082159 | 75 | 253 | 2.0 | 6.0 | 0.00 | 0.00 | 0.00 | 96 | 1013.0 |
| 20260901081655 | 75 | 300 | 0.0 | 3.0 | 0.00 | 0.00 | 0.00 | 96 | 1013.0 |
| 20260901081154 | 75 | 253 | 4.0 | 7.0 | 0.00 | 0.00 | 0.00 | 96 | 1012.8 |
| 20260901080649 | 75 | 255 | 2.0 | 5.0 | 0.00 | 0.00 | 0.00 | 96 | 1013.1 |
| 20260901080148 | 75 | 310 | 3.0 | 4.0 | 0.00 | 0.00 | 0.00 | 96 | 1012.9 |
| 20260901075643 | 75 | 235 | 2.0 | 6.0 | 0.00 | 0.00 | 0.00 | 96 | 1012.9 |
| 20260901075143 | 75 | 253 | 2.0 | 6.0 | 0.00 | 0.00 | 0.00 | 96 | 1012.8 |
| 20260901074642 | 75 | 282 | 2.0 | 4.0 | 0.00 | 0.00 | 0.00 | 96 | 1013.0 |
| 20260901074138 | 75 | 255 | 0.0 | 4.0 | 0.00 | 0.00 | 0.00 | 96 | 1012.9 |
| 20260901073634 | 75 | 248 | 0.0 | 4.0 | 0.00 | 0.00 | 0.00 | 95 | 1013.0 |
| 20260901073129 | 75 | 236 | 3.0 | 5.0 | 0.00 | 0.00 | 0.00 | 95 | 1013.1 |
| 20260901072624 | 75 | 249 | 3.0 | 4.0 | 0.00 | 0.00 | 0.00 | 95 | 1012.9 |
| 20260901072119 | 75 | 245 | 4.0 | 5.0 | 0.00 | 0.00 | 0.00 | 95 | 1012.8 |
| 20260901071614 | 75 | 252 | 4.0 | 4.0 | 0.00 | 0.00 | 0.00 | 95 | 1012.9 |
| 20260901071113 | 75 | 270 | 3.0 | 5.0 | 0.00 | 0.00 | 0.00 | 95 | 1012.9 |
| 20260901070607 | 75 | 249 | 3.0 | 4.0 | 0.00 | 0.00 | 0.00 | 95 | 1012.7 |
| 20260901070103 | 75 | 218 | 2.0 | 4.0 | 0.00 | 0.00 | 0.00 | 95 | 1012.6 |
| 20260901065556 | 75 | 227 | 3.0 | 5.0 | 0.00 | 0.00 | 0.00 | 95 | 1012.9 |
| 20260901065051 | 75 | 221 | 2.0 | 5.0 | 0.00 | 0.00 | 0.00 | 95 | 1012.8 |
| 20260901064548 | 76 | 246 | 3.0 | 4.0 | 0.00 | 0.00 | 0.00 | 95 | 1012.7 |
| 20260901064044 | 76 | 236 | 2.0 | 3.0 | 0.00 | 0.00 | 0.00 | 95 | 1012.8 |
| 20260901063541 | 76 | 218 | 2.0 | 2.0 | 0.00 | 0.00 | 0.00 | 95 | 1012.8 |
| 20260901063037 | 76 | 212 | 2.0 | 2.0 | 0.00 | 0.00 | 0.00 | 95 | 1012.9 |
| 20260901062532 | 76 | 203 | 1.0 | 3.0 | 0.00 | 0.00 | 0.00 | 95 | 1013.0 |
| 20260901062028 | 76 | 240 | 0.0 | 2.0 | 0.00 | 0.00 | 0.00 | 95 | 1012.8 |
| 20260901061524 | 75 | 251 | 0.0 | 2.0 | 0.00 | 0.00 | 0.00 | 95 | 1013.1 |
| 20260901061019 | 76 | 254 | 0.0 | 2.0 | 0.00 | 0.00 | 0.00 | 95 | 1012.8 |
| 20260901060513 | 76 | 286 | 0.0 | 3.0 | 0.00 | 0.00 | 0.00 | 94 | 1013.0 |
| 20260901060008 | 76 | 233 | 2.0 | 2.0 | 0.00 | 0.00 | 0.00 | 94 | 1013.2 |
| 20260901055504 | 76 | 216 | 2.0 | 2.0 | 0.00 | 0.00 | 0.00 | 94 | 1012.9 |
| 20260901055000 | 76 | 206 | 2.0 | 5.0 | 0.00 | 0.00 | 0.00 | 94 | 1012.9 |
| 20260901054457 | 76 | 230 | 4.0 | 4.0 | 0.00 | 0.00 | 0.00 | 94 | 1012.9 |
| 20260901053953 | 76 | 222 | 3.0 | 4.0 | 0.00 | 0.00 | 0.00 | 94 | 1012.8 |
| 20260901053448 | 76 | 195 | 1.0 | 4.0 | 0.00 | 0.00 | 0.00 | 94 | 1012.9 |
| 20260901052944 | 76 | 238 | 3.0 | 4.0 | 0.00 | 0.00 | 0.00 | 94 | 1013.1 |
| 20260901052439 | 76 | 0 | 0.0 | 4.0 | 0.00 | 0.00 | 0.00 | 94 | 1012.9 |
| 20260901051938 | 77 | 263 | 1.0 | 3.0 | 0.00 | 0.00 | 0.00 | 94 | 1013.1 |
| 20260901051433 | 77 | 301 | 2.0 | 3.0 | 0.00 | 0.00 | 0.00 | 94 | 1013.0 |
| 20260901050927 | 77 | 232 | 2.0 | 4.0 | 0.00 | 0.00 | 0.00 | 93 | 1012.9 |
| 20260901050423 | 77 | 230 | 4.0 | 5.0 | 0.00 | 0.00 | 0.00 | 93 | 1012.7 |
| 20260901045923 | 77 | 242 | 4.0 | 5.0 | 0.00 | 0.11 | 0.11 | 93 | 1012.8 |
| 20260901045418 | 77 | 242 | 4.0 | 4.0 | 0.00 | 0.11 | 0.11 | 93 | 1012.6 |
| 20260901044913 | 77 | 234 | 3.0 | 4.0 | 0.00 | 0.11 | 0.11 | 93 | 1012.8 |
| 20260901044409 | 77 | 258 | 3.0 | 4.0 | 0.00 | 0.11 | 0.11 | 92 | 1012.8 |
| 20260901043904 | 77 | 241 | 5.0 | 5.0 | 0.00 | 0.11 | 0.11 | 92 | 1012.9 |
| 20260901043400 | 78 | 241 | 2.0 | 5.0 | 0.00 | 0.11 | 0.11 | 92 | 1012.8 |
| 20260901042855 | 78 | 246 | 3.0 | 6.0 | 0.00 | 0.11 | 0.11 | 92 | 1012.9 |
| 20260901042349 | 78 | 247 | 3.0 | 5.0 | 0.00 | 0.11 | 0.11 | 92 | 1012.9 |
| 20260901041844 | 77 | 245 | 4.0 | 5.0 | 0.00 | 0.11 | 0.11 | 92 | 1012.8 |
| 20260901041339 | 78 | 232 | 3.0 | 5.0 | 0.00 | 0.11 | 0.11 | 92 | 1012.7 |
| 20260901040834 | 77 | 225 | 0.0 | 5.0 | 0.00 | 0.11 | 0.11 | 92 | 1012.7 |
| 20260901040333 | 78 | 225 | 3.0 | 6.0 | 0.00 | 0.11 | 0.11 | 92 | 1013.0 |
| 20260901035832 | 78 | 255 | 1.0 | 4.0 | 0.00 | 0.11 | 0.11 | 92 | 1012.9 |
| 20260901035331 | 78 | 216 | 3.0 | 4.0 | 0.00 | 0.11 | 0.11 | 91 | 1012.9 |
| 20260901034830 | 78 | 203 | 3.0 | 5.0 | 0.00 | 0.11 | 0.11 | 91 | 1012.9 |
| 20260901034325 | 78 | 211 | 5.0 | 5.0 | 0.00 | 0.11 | 0.11 | 92 | 1013.0 |
| 20260901033820 | 78 | 231 | 2.0 | 5.0 | 0.00 | 0.11 | 0.11 | 91 | 1012.7 |
| 20260901033319 | 78 | 218 | 4.0 | 5.0 | 0.00 | 0.11 | 0.11 | 91 | 1012.9 |
| 20260901032818 | 78 | 200 | 1.0 | 4.0 | 0.00 | 0.11 | 0.11 | 91 | 1012.7 |
| 20260901032317 | 78 | 204 | 2.0 | 5.0 | 0.00 | 0.11 | 0.11 | 90 | 1012.7 |
| 20260901031812 | 79 | 207 | 3.0 | 4.0 | 0.00 | 0.11 | 0.11 | 90 | 1012.8 |
| 20260901031308 | 79 | 221 | 2.0 | 4.0 | 0.00 | 0.11 | 0.11 | 90 | 1012.8 |
| 20260901030808 | 79 | 203 | 2.0 | 3.0 | 0.00 | 0.11 | 0.11 | 90 | 1012.8 |
| 20260901030303 | 78 | 191 | 2.0 | 3.0 | 0.00 | 0.11 | 0.11 | 90 | 1012.8 |
| 20260901025802 | 78 | 199 | 0.0 | 3.0 | 0.00 | 0.11 | 0.11 | 90 | 1012.9 |
| 20260901025257 | 78 | 215 | 1.0 | 3.0 | 0.00 | 0.11 | 0.11 | 90 | 1013.0 |
| 20260901024752 | 79 | 233 | 0.0 | 3.0 | 0.00 | 0.11 | 0.11 | 90 | 1013.0 |
| 20260901024251 | 79 | 263 | 1.0 | 3.0 | 0.00 | 0.11 | 0.11 | 90 | 1012.9 |
| 20260901023749 | 79 | 151 | 2.0 | 2.0 | 0.00 | 0.11 | 0.11 | 90 | 1013.0 |
| 20260901023244 | 79 | 221 | 0.0 | 3.0 | 0.00 | 0.11 | 0.11 | 89 | 1012.7 |
| 20260901022740 | 79 | 180 | 0.0 | 3.0 | 0.00 | 0.11 | 0.11 | 89 | 1012.9 |
| 20260901022235 | 79 | 243 | 3.0 | 4.0 | 0.00 | 0.11 | 0.11 | 89 | 1013.0 |
| 20260901021730 | 80 | 216 | 3.0 | 7.0 | 0.00 | 0.11 | 0.11 | 89 | 1012.9 |
| 20260901021226 | 80 | 227 | 3.0 | 5.0 | 0.00 | 0.11 | 0.11 | 89 | 1013.0 |
| 20260901020721 | 80 | 259 | 3.0 | 5.0 | 0.00 | 0.11 | 0.11 | 89 | 1012.8 |
| 20260901020217 | 80 | 243 | 3.0 | 5.0 | 0.00 | 0.11 | 0.11 | 88 | 1012.8 |
| 20260901015711 | 80 | 239 | 5.0 | 7.0 | 0.00 | 0.11 | 0.11 | 88 | 1012.9 |
| 20260901015207 | 80 | 245 | 4.0 | 8.0 | 0.00 | 0.11 | 0.11 | 88 | 1012.8 |
| 20260901014706 | 81 | 252 | 5.0 | 8.0 | 0.00 | 0.11 | 0.11 | 88 | 1012.8 |
| 20260901014203 | 81 | 242 | 5.0 | 9.0 | 0.00 | 0.11 | 0.11 | 87 | 1012.9 |
| 20260901013653 | 81 | 241 | 5.0 | 7.0 | 0.00 | 0.11 | 0.11 | 87 | 1012.4 |
| 20260901013148 | 81 | 237 | 5.0 | 10.0 | 0.00 | 0.11 | 0.11 | 86 | 1012.8 |
| 20260901012643 | 81 | 232 | 4.0 | 8.0 | 0.00 | 0.11 | 0.11 | 86 | 1012.8 |
| 20260901012138 | 82 | 247 | 8.0 | 13.0 | 0.00 | 0.11 | 0.11 | 85 | 1012.6 |
| 20260901011634 | 81 | 287 | 5.0 | 9.0 | 0.00 | 0.11 | 0.11 | 86 | 1012.4 |
| 20260901011133 | 82 | 245 | 8.0 | 9.0 | 0.00 | 0.11 | 0.11 | 86 | 1012.2 |
| 20260901010627 | 81 | 230 | 6.0 | 6.0 | 0.00 | 0.11 | 0.11 | 86 | 1012.1 |
| 20260901010121 | 82 | 228 | 4.0 | 6.0 | 0.00 | 0.11 | 0.11 | 85 | 1012.2 |
| 20260901005620 | 82 | 230 | 4.0 | 7.0 | 0.00 | 0.11 | 0.11 | 85 | 1011.8 |
| 20260901005116 | 82 | 200 | 5.0 | 7.0 | 0.00 | 0.11 | 0.11 | 85 | 1011.9 |
| 20260901004615 | 82 | 225 | 4.0 | 9.0 | 0.00 | 0.11 | 0.11 | 85 | 1011.6 |
| 20260901004110 | 82 | 226 | 5.0 | 6.0 | 0.00 | 0.11 | 0.11 | 85 | 1011.7 |
| 20260901003605 | 82 | 236 | 4.0 | 6.0 | 0.00 | 0.11 | 0.11 | 85 | 1011.5 |
| 20260901003103 | 82 | 241 | 4.0 | 6.0 | 0.00 | 0.11 | 0.11 | 84 | 1011.4 |
| 20260901002558 | 82 | 225 | 8.0 | 8.0 | 0.00 | 0.11 | 0.11 | 84 | 1011.4 |
| 20260901002053 | 83 | 236 | 4.0 | 7.0 | 0.00 | 0.11 | 0.11 | 84 | 1011.3 |
| 20260901001548 | 83 | 231 | 5.0 | 6.0 | 0.00 | 0.11 | 0.11 | 83 | 1011.3 |
| 20260901001043 | 83 | 216 | 4.0 | 7.0 | 0.00 | 0.11 | 0.11 | 83 | 1011.3 |
| 20260901000537 | 83 | 233 | 3.0 | 9.0 | 0.00 | 0.11 | 0.11 | 82 | 1011.3 |
| 20260901000033 | 83 | 242 | 3.0 | 7.0 | 0.00 | 0.11 | 0.11 | 82 | 1011.3 |
| 20260831235526 | 83 | 227 | 5.0 | 9.0 | 0.00 | 0.11 | 0.11 | 81 | 1011.4 |
| 20260831235023 | 84 | 242 | 4.0 | 8.0 | 0.00 | 0.11 | 0.11 | 80 | 1011.1 |
| 20260831234516 | 84 | 229 | 5.0 | 7.0 | 0.00 | 0.11 | 0.11 | 81 | 1011.1 |
| 20260831234013 | 84 | 231 | 5.0 | 9.0 | 0.00 | 0.11 | 0.11 | 80 | 1011.3 |
| 20260831233507 | 84 | 225 | 3.0 | 10.0 | 0.00 | 0.11 | 0.11 | 80 | 1010.9 |
| 20260831233003 | 84 | 222 | 3.0 | 8.0 | 0.00 | 0.11 | 0.11 | 81 | 1011.4 |
| 20260831232458 | 84 | 240 | 4.0 | 8.0 | 0.00 | 0.11 | 0.11 | 81 | 1011.2 |
| 20260831231954 | 84 | 229 | 4.0 | 6.0 | 0.00 | 0.11 | 0.11 | 81 | 1011.1 |
| 20260831231451 | 84 | 203 | 4.0 | 7.0 | 0.00 | 0.11 | 0.11 | 80 | 1011.0 |
| 20260831230946 | 84 | 213 | 4.0 | 7.0 | 0.00 | 0.11 | 0.11 | 81 | 1011.1 |
| 20260831230440 | 85 | 232 | 6.0 | 7.0 | 0.00 | 0.11 | 0.11 | 81 | 1011.2 |
| 20260831225934 | 84 | 209 | 5.0 | 5.0 | 0.00 | 0.11 | 0.11 | 81 | 1011.3 |
| 20260831225431 | 85 | 232 | 3.0 | 4.0 | 0.00 | 0.11 | 0.11 | 80 | 1010.8 |
| 20260831224926 | 84 | 221 | 2.0 | 3.0 | 0.00 | 0.11 | 0.11 | 81 | 1010.8 |
| 20260831224425 | 85 | 201 | 2.0 | 2.0 | 0.00 | 0.11 | 0.11 | 80 | 1010.6 |
| 20260831223920 | 85 | 168 | 1.0 | 2.0 | 0.00 | 0.11 | 0.11 | 79 | 1010.4 |
| 20260831223416 | 85 | 171 | 3.0 | 3.0 | 0.00 | 0.11 | 0.11 | 78 | 1010.4 |
| 20260831222913 | 85 | 221 | 2.0 | 4.0 | 0.00 | 0.11 | 0.11 | 78 | 1010.5 |
| 20260831222408 | 85 | 225 | 7.0 | 7.0 | 0.00 | 0.11 | 0.11 | 77 | 1010.8 |
| 20260831221903 | 85 | 231 | 3.0 | 6.0 | 0.00 | 0.11 | 0.11 | 78 | 1010.9 |
| 20260831221358 | 86 | 220 | 6.0 | 8.0 | 0.00 | 0.11 | 0.11 | 77 | 1011.0 |
| 20260831220854 | 86 | 218 | 5.0 | 9.0 | 0.00 | 0.11 | 0.11 | 76 | 1011.0 |
| 20260831220349 | 86 | 201 | 3.0 | 7.0 | 0.00 | 0.11 | 0.11 | 76 | 1011.0 |